Weather History for KBGE - March, 2013

Change the Weather History Date:

Sunday, March 3, 2013

  Actual Average (KMAI) Record (KMAI)
Temperature  
Mean Temperature 42 °F 58 °F  
Max Temperature 50 °F 70 °F 83 °F (2015)
Min Temperature 35 °F 46 °F 28 °F (2009)
Degree Days  
Heating Degree Days 22    
Month to date heating degree days  
Since 1 July heating degree days  
Cooling Degree Days 0    
Month to date cooling degree days  
Year to date cooling degree days  
Moisture  
Dew Point 29 °F    
Average Humidity 62    
Maximum Humidity 87    
Minimum Humidity 37    
Precipitation  
Precipitation 0.00 in 0.15 in 4.73 in (2012)
Month to date precipitation 0.42  
Year to date precipitation 10.40  
Sea Level Pressure  
Sea Level Pressure 30.11 in    
Wind  
Wind Speed 10 mph (WNW)    
Max Wind Speed 16 mph    
Max Gust Speed 23 mph    
Visibility 10 miles    
Events      
T = Trace of Precipitation, MM = Missing Value Source: NWS Daily Summary

Daily Weather History Graph

Daily Weather History Graph

Search for Another Location

Airport or City:

Trip Planner

Search our weather history database for the weather conditions in past years. The results will help you decide how hot, cold, wet, or windy it might be!

Date:

Astronomy

Mar. 03, 2013 Rise Set
Actual Time 7:02 AM EST 6:38 PM EST
Civil Twilight 6:38 AM EST 7:02 PM EST
Nautical Twilight 6:10 AM EST 7:30 PM EST
Astronomical Twilight 5:42 AM EST 7:58 PM EST
Moon No Moon Rise 10:43 AM EST (3/3)
Length of Visible Light 12h 24m
Length of Day
11h 36m
Waning Gibbous, 64% of the Moon is Illuminated
Mar 3
Waning Gibbous
Mar 4
Last Quarter
Mar 11
New
Mar 19
First Quarter
Mar 27
Full

Hourly Weather History & Observations

Time (EST) Temp. Windchill Dew Point Humidity Pressure Visibility Wind Dir Wind Speed Gust Speed Precip Events Conditions
12:15 AM 41.0 °F 35.2 °F 32.0 °F 70% 30.08 in 10.0 mi NW 9.2 mph - N/A   Overcast
12:35 AM 41.0 °F 34.7 °F 32.0 °F 70% 30.09 in 10.0 mi WNW 10.4 mph - N/A   Overcast
12:55 AM 41.0 °F 34.3 °F 32.0 °F 70% 30.09 in 10.0 mi NW 11.5 mph - N/A   Overcast
1:15 AM 41.0 °F 34.7 °F 32.0 °F 70% 30.09 in 10.0 mi NW 10.4 mph 17.3 mph N/A   Overcast
2:15 AM 39.2 °F 31.6 °F 30.2 °F 70% 30.09 in 10.0 mi NW 12.7 mph - N/A   Overcast
2:35 AM 39.2 °F 32.0 °F 30.2 °F 70% 30.09 in 10.0 mi WNW 11.5 mph - N/A   Overcast
2:55 AM 39.2 °F 32.5 °F 30.2 °F 70% 30.08 in 10.0 mi WNW 10.4 mph - N/A   Overcast
3:15 AM 39.2 °F 33.0 °F 30.2 °F 70% 30.08 in 10.0 mi WNW 9.2 mph - N/A   Overcast
3:35 AM 39.2 °F 32.5 °F 30.2 °F 70% 30.08 in 10.0 mi WNW 10.4 mph - N/A   Overcast
3:55 AM 39.2 °F 31.6 °F 30.2 °F 70% 30.08 in 10.0 mi NW 12.7 mph - N/A   Overcast
4:15 AM 39.2 °F 33.0 °F 30.2 °F 70% 30.08 in 10.0 mi WNW 9.2 mph - N/A   Overcast
4:35 AM 39.2 °F 32.5 °F 30.2 °F 70% 30.08 in 10.0 mi NW 10.4 mph - N/A   Overcast
4:55 AM 39.2 °F 33.0 °F 30.2 °F 70% 30.08 in 10.0 mi NW 9.2 mph - N/A   Overcast
5:15 AM 39.2 °F 32.0 °F 30.2 °F 70% 30.09 in 10.0 mi WNW 11.5 mph - N/A   Overcast
5:35 AM 39.2 °F 32.5 °F 30.2 °F 70% 30.09 in 10.0 mi WNW 10.4 mph - N/A   Overcast
6:15 AM 39.2 °F 32.5 °F 30.2 °F 70% 30.09 in 10.0 mi WNW 10.4 mph - N/A   Overcast
6:35 AM 39.2 °F 32.0 °F 30.2 °F 70% 30.09 in 10.0 mi WNW 11.5 mph 17.3 mph N/A   Overcast
6:55 AM 39.2 °F 32.5 °F 32.0 °F 75% 30.09 in 10.0 mi NW 10.4 mph - N/A   Overcast
7:35 AM 39.2 °F 33.6 °F 32.0 °F 75% 30.10 in 10.0 mi WNW 8.1 mph - N/A   Overcast
8:15 AM 39.2 °F 31.6 °F 32.0 °F 75% 30.11 in 10.0 mi NW 12.7 mph - N/A   Overcast
8:35 AM 39.2 °F 32.5 °F 32.0 °F 75% 30.13 in 10.0 mi NW 10.4 mph - N/A   Mostly Cloudy
9:15 AM 39.2 °F 31.2 °F 30.2 °F 70% 30.14 in 10.0 mi NW 13.8 mph - N/A   Mostly Cloudy
9:35 AM 39.2 °F 31.2 °F 30.2 °F 70% 30.14 in 10.0 mi NW 13.8 mph - N/A   Mostly Cloudy
9:55 AM 39.2 °F 30.8 °F 30.2 °F 70% 30.14 in 10.0 mi NW 15.0 mph 18.4 mph N/A   Mostly Cloudy
10:15 AM 41.0 °F 33.1 °F 28.4 °F 61% 30.15 in 10.0 mi NW 15.0 mph - N/A   Mostly Cloudy
10:35 AM 41.0 °F 32.8 °F 26.6 °F 57% 30.15 in 10.0 mi NW 16.1 mph - N/A   Mostly Cloudy
10:55 AM 41.0 °F 33.9 °F 26.6 °F 57% 30.15 in 10.0 mi NW 12.7 mph - N/A   Overcast
11:15 AM 39.2 °F 31.6 °F 28.4 °F 65% 30.15 in 10.0 mi NW 12.7 mph 16.1 mph N/A   Overcast
11:35 AM 41.0 °F 33.5 °F 30.2 °F 65% 30.15 in 10.0 mi WNW 13.8 mph - N/A   Mostly Cloudy
11:55 AM 42.8 °F 36.2 °F 28.4 °F 57% 30.14 in - WNW 12.7 mph 18.4 mph N/A   Mostly Cloudy
12:15 PM 41.0 °F 35.2 °F 26.6 °F 57% 30.14 in 10.0 mi NW 9.2 mph - N/A   Scattered Clouds
12:35 PM 42.8 °F 35.8 °F 28.4 °F 57% 30.12 in 10.0 mi NW 13.8 mph - N/A   Mostly Cloudy
12:55 PM 42.8 °F 37.0 °F 28.4 °F 57% 30.12 in 10.0 mi NW 10.4 mph - N/A   Mostly Cloudy
1:15 PM 42.8 °F 36.2 °F 28.4 °F 57% 30.11 in 10.0 mi NW 12.7 mph 18.4 mph N/A   Scattered Clouds
1:35 PM 44.6 °F 38.4 °F 26.6 °F 49% 30.10 in 10.0 mi WNW 12.7 mph 20.7 mph N/A   Scattered Clouds
1:55 PM 44.6 °F 38.8 °F 28.4 °F 53% 30.09 in 10.0 mi WNW 11.5 mph 18.4 mph N/A   Scattered Clouds
2:15 PM 46.4 °F 40.1 °F 26.6 °F 46% 30.09 in 10.0 mi WNW 15.0 mph 18.4 mph N/A   Scattered Clouds
2:35 PM 46.4 °F 40.7 °F 26.6 °F 46% 30.08 in 10.0 mi WNW 12.7 mph 23.0 mph N/A   Scattered Clouds
2:55 PM 46.4 °F 41.1 °F 26.6 °F 46% 30.08 in 10.0 mi WNW 11.5 mph 17.3 mph N/A   Scattered Clouds
3:15 PM 50.0 °F - 26.6 °F 40% 30.08 in 10.0 mi NW 10.4 mph 19.6 mph N/A   Scattered Clouds
3:35 PM 50.0 °F - 26.6 °F 40% 30.07 in 10.0 mi WNW 13.8 mph 20.7 mph N/A   Clear
3:55 PM 50.0 °F - 26.6 °F 40% 30.07 in 10.0 mi WNW 16.1 mph 20.7 mph N/A   Clear
4:15 PM 50.0 °F - 26.6 °F 40% 30.07 in 10.0 mi WNW 15.0 mph 21.9 mph N/A   Clear
4:35 PM 50.0 °F - 24.8 °F 37% 30.07 in 10.0 mi WNW 15.0 mph 20.7 mph N/A   Clear
4:55 PM 50.0 °F - 24.8 °F 37% 30.07 in 10.0 mi NW 12.7 mph 16.1 mph N/A   Clear
5:15 PM 50.0 °F - 24.8 °F 37% 30.08 in 10.0 mi NW 8.1 mph - N/A   Clear
5:35 PM 50.0 °F - 24.8 °F 37% 30.08 in 10.0 mi NW 12.7 mph - N/A   Clear
5:55 PM 50.0 °F - 26.6 °F 40% 30.09 in 10.0 mi WNW 12.7 mph 17.3 mph N/A   Clear
6:15 PM 48.2 °F - 24.8 °F 40% 30.10 in 10.0 mi NW 9.2 mph - N/A   Clear
6:35 PM 46.4 °F 42.4 °F 24.8 °F 43% 30.10 in 10.0 mi NW 8.1 mph - N/A   Clear
6:55 PM 44.6 °F 41.4 °F 26.6 °F 49% 30.11 in 10.0 mi NW 5.8 mph - N/A   Clear
7:15 PM 44.6 °F 42.2 °F 28.4 °F 53% 30.11 in 10.0 mi WNW 4.6 mph - N/A   Clear
7:35 PM 42.8 °F 39.3 °F 28.4 °F 57% 30.12 in 10.0 mi WNW 5.8 mph - N/A   Clear
7:55 PM 42.8 °F 38.6 °F 30.2 °F 61% 30.13 in 10.0 mi WNW 6.9 mph - N/A   Clear
8:15 PM 42.8 °F 39.3 °F 28.4 °F 57% 30.14 in 10.0 mi WNW 5.8 mph - N/A   Clear
8:35 PM 41.0 °F 39.0 °F 30.2 °F 65% 30.14 in 10.0 mi WNW 3.5 mph - N/A   Clear
8:55 PM 41.0 °F 39.0 °F 30.2 °F 65% 30.15 in 10.0 mi WNW 3.5 mph - N/A   Clear
9:15 PM 41.0 °F - 30.2 °F 65% 30.15 in 10.0 mi Calm Calm - N/A   Clear
9:35 PM 39.2 °F 37.0 °F 30.2 °F 70% 30.16 in 10.0 mi West 3.5 mph - N/A   Clear
9:55 PM 37.4 °F 34.9 °F 32.0 °F 81% 30.17 in 10.0 mi West 3.5 mph - N/A   Clear
10:15 PM 37.4 °F 34.9 °F 32.0 °F 81% 30.17 in 10.0 mi WSW 3.5 mph - N/A   Clear
10:35 PM 35.6 °F - 32.0 °F 87% 30.17 in 10.0 mi Calm Calm - N/A   Clear
10:55 PM 35.6 °F - 30.2 °F 81% 30.17 in 10.0 mi Calm Calm - N/A   Clear
11:15 PM 35.6 °F - 32.0 °F 87% 30.17 in 10.0 mi Calm Calm - N/A   Clear
11:35 PM 35.6 °F - 32.0 °F 87% 30.17 in 10.0 mi Calm Calm - N/A   Clear
11:55 PM 35.6 °F - 30.2 °F 81% 30.17 in 10.0 mi Calm Calm - N/A   Clear